Main page
METAR-TAF:

METAR-TAF

Airports :

York Airport

York, Pennsylvania, United States

latitude: 39-55-10N, longitude: 076-52-37W, elevation: 479 ft

Current weather observation

The report was made 21 minutes ago, at 15:53 UTC
Wind 7 mph from the East
Temperature 54°F
Humidity 58%
Pressure 30.03 in. Hg
Visibility: 10 miles
Scattered clouds at a height of 2800 ft
Overcast at a height of 3400 ft

METAR: KTHV 041553Z AUTO 08006KT 10SM SCT028 OVC034 12/04 A3003 RMK AO2 SLP171 T01220044

Time: 12:14 (16:14 UTC)


TAF: missing

Weather observations and forecasts of more than 4000 airports (METAR and TAF reports).

The available stations are represented by yellow and red dots on the map.

Hover mouse over dot to see the name of the station.

Then click to see weather observations and forecasts.

To change the map : click on the green buttons with a black cross to zoom in, on the green button with a dash to zoom out, or on the green arrows for adjacent maps.


METAR-TAF: